Wetbulb
33.58 34.76 34.29 34.58 33.47 33.72 32.39 32.62 27.77 30.65 31.20 34.88 36.71 36.79 37.54 38.28 37.80 36.65 36.69 37.00 36.78 36.39 36.32 35.87 35.54 35.35 35.32 34.11 34.44 34.41 33.62 33.17 33.30 34.44 34.89 35.57 35.87 36.48 37.26 39.26 39.86 41.08 42.80 44.13
30.03 33.80 33.55 31.40 33.09 33.98 33.81 33.61 32.75 32.95 32.39 37.90 38.67 38.60 36.89 36.72 35.88 35.14 35.51 36.01 36.02 35.75 35.46 34.94 34.79 34.37 34.43 33.73 34.21 34.48 33.26 32.28 33.08 33.15 33.95 34.13 35.34 36.05 36.32 37.12 38.95 39.19 39.68 41.48
25.15 32.04 31.49 26.86 31.30 32.71 33.45 35.37 33.87 29.11 34.57 37.57 35.77 35.95 35.62 35.76 35.56 35.01 35.14 35.28 35.20 34.82 34.71 34.84 34.67 34.65 33.26 33.83 35.02 33.76 32.43 32.35 32.69 32.84 32.79 33.36 34.35 34.56 35.14 35.65 37.26 37.63 37.86 38.88
26.95 30.29 19.82 32.34 38.18 37.52 35.06 35.49 36.57 35.82 36.47 36.37 36.24 37.33 37.91 37.28 36.03 35.13 35.03 35.06 35.12 34.84 34.58 35.16 35.46 34.60 34.01 34.87 34.12 32.91 31.63 31.29 32.44 32.65 32.21 33.10 33.19 33.15 34.44 34.46 35.27 35.54 36.39 36.88
24.97 25.38 29.66 32.56 34.92 33.81 32.03 31.90 37.70 36.20 36.02 36.59 37.57 37.69 36.28 38.11 37.27 35.51 35.80 35.79 35.42 35.29 34.91 35.27 34.69 34.65 33.57 33.55 33.40 31.50 30.46 30.44 31.55 32.03 31.77 32.09 32.17 32.08 32.98 33.21 33.08 33.78 34.47 34.49
28.54 22.76 20.69 31.64 36.67 39.06 37.46 25.89 37.98 36.80 35.22 34.59 35.70 29.61 33.04 36.55 36.54 35.15 35.87 35.51 34.80 34.76 34.58 34.53 34.27 34.45 32.86 32.03 31.22 29.41 29.83 30.70 31.65 31.61 31.17 31.04 30.97 31.25 31.79 32.05 31.51 32.20 32.10 33.38
27.42 25.65 29.70 36.58 37.68 38.43 24.84 28.05 36.80 36.40 35.87 34.87 31.98 33.95 36.20 37.22 35.23 36.42 35.99 35.11 35.25 34.47 33.18 33.29 34.02 33.28 31.09 31.28 29.04 30.03 30.43 30.68 30.63 30.90 30.45 30.61 29.92 30.48 30.06 29.93 29.96 29.73 29.69 30.75
27.87 24.99 22.92 39.37 36.82 30.27 35.10 37.39 36.72 35.68 35.43 34.40 34.92 36.37 36.14 35.16 34.80 35.08 34.36 34.46 34.04 32.48 32.08 33.16 32.99 31.67 29.93 29.06 29.77 30.00 29.87 29.28 29.49 30.02 29.96 29.73 28.99 29.64 29.85 28.92 27.69 26.93 26.80 27.22
32.03 31.28 39.21 40.26 39.29 40.32 39.75 37.66 36.14 35.61 35.51 36.23 35.82 35.25 34.26 33.56 33.85 33.70 33.64 32.58 32.46 31.03 30.84 31.74 31.51 30.74 28.59 28.55 28.97 28.62 28.15 27.87 28.99 29.68 29.24 29.61 28.65 28.64 28.49 28.50 26.61 25.68 24.98 24.64
33.70 36.10 37.42 38.27 39.80 39.65 39.24 37.40 37.33 37.30 36.98 36.50 34.12 33.58 32.97 32.40 32.15 31.61 31.25 30.10 30.11 29.06 27.98 27.59 28.99 28.93 28.57 28.27 28.25 26.97 26.69 26.56 28.08 27.85 27.96 28.85 28.80 28.81 27.96 27.38 25.49 25.20 24.66 23.28
32.89 36.14 38.07 38.53 38.98 38.35 37.10 37.32 36.73 37.22 35.89 33.98 33.03 32.29 31.54 30.53 30.09 29.09 27.65 27.96 27.35 25.96 25.06 25.40 26.65 26.54 27.21 26.74 26.64 25.38 25.75 25.97 26.65 27.12 27.29 27.24 27.78 27.52 27.54 28.76 27.46 25.30 25.40 24.54
32.08 37.82 36.31 37.45 38.46 38.34 36.27 35.31 36.20 35.48 34.75 34.48 33.07 30.81 30.54 29.39 28.53 25.41 24.71 24.99 24.01 23.50 23.02 23.93 24.19 24.24 25.22 26.02 25.53 25.31 24.41 25.28 26.49 26.37 26.00 26.85 26.38 26.57 29.33 29.13 28.97 28.47 27.83 26.16
36.88 40.54 39.97 39.93 39.32 38.70 36.72 36.63 35.50 34.18 32.93 31.31 31.23 30.05 28.95 27.20 24.94 24.15 23.24 21.76 20.02 20.53 22.59 21.75 22.16 22.63 25.02 25.17 25.87 24.97 23.82 25.87 26.47 25.91 25.68 26.01 25.57 25.13 23.60 26.46 28.02 27.80 27.44 26.33
40.79 39.60 36.22 37.87 35.81 38.56 37.35 35.27 32.77 33.04 32.00 30.65 29.53 28.60 27.16 25.49 23.48 21.41 19.48 19.06 19.55 20.24 22.20 20.93 21.72 22.45 23.61 24.05 25.73 23.98 24.01 26.50 26.30 25.85 25.69 26.09 25.37 24.66 24.71 23.44 22.47 23.41 26.04 24.81
38.73 39.57 38.99 38.05 37.13 35.77 35.49 34.02 31.71 30.42 29.62 28.65 27.76 25.26 24.73 22.85 22.11 21.20 18.07 18.53 18.91 21.02 17.84 20.34 20.76 20.84 21.93 22.74 24.35 22.35 24.35 25.65 25.85 25.89 26.27 25.75 25.32 24.47 24.13 23.48 22.97 22.65 22.90 21.60
38.08 37.95 37.16 35.40 34.29 33.31 32.73 31.16 29.74 28.68 27.85 26.83 24.70 22.67 22.49 22.59 22.69 20.63 19.03 18.31 18.94 19.23 20.64 19.51 20.44 20.87 21.21 23.40 23.68 22.70 24.19 25.44 24.47 25.16 25.53 24.53 24.35 23.54 22.88 22.33 22.19 21.67 21.07 20.12
34.50 33.22 33.84 32.07 31.36 30.80 30.12 29.07 28.13 26.81 25.94 24.39 21.95 20.25 20.15 19.58 20.68 18.02 17.07 18.10 19.67 20.71 22.37 19.68 21.06 21.02 22.03 24.36 23.00 22.43 24.29 24.63 23.97 24.69 24.61 23.83 23.49 23.16 23.24 22.06 21.50 21.12 21.18 21.20
37.65 36.75 35.96 33.95 30.96 29.23 27.68 27.00 26.35 25.48 22.58 21.15 19.02 16.63 15.16 14.89 16.05 16.23 16.90 19.41 19.34 20.36 19.71 19.99 22.58 21.91 22.80 23.39 21.91 22.62 23.90 23.36 23.46 23.38 23.93 23.27 23.47 23.88 23.32 21.92 21.39 21.08 20.76 20.84
33.78 31.29 30.35 30.02 29.61 28.18 27.38 26.15 24.10 22.31 19.84 18.91 16.94 16.23 16.82 16.61 17.26 17.59 17.98 18.75 20.00 17.95 17.78 21.57 22.90 22.16 20.79 21.96 21.67 23.18 22.49 22.20 22.41 22.44 23.07 22.29 23.43 23.11 22.83 22.00 20.83 20.80 20.27 19.67
31.00 30.22 28.80 27.43 27.99 27.78 24.26 23.23 23.84 20.47 20.15 19.07 16.30 17.01 15.73 16.16 17.95 15.88 18.23 20.67 20.20 18.25 20.50 22.03 21.40 19.99 19.07 20.36 19.61 22.44 21.64 21.03 20.40 20.81 21.14 20.98 21.39 21.35 22.14 20.87 20.90 20.02 19.83 19.11
28.75 27.50 25.37 23.10 20.61 19.99 19.12 19.44 18.97 19.22 17.28 15.36 15.40 14.12 13.66 17.42 19.91 17.51 20.23 18.53 20.41 19.49 19.35 21.15 19.05 17.95 18.61 17.73 21.10 21.30 20.66 19.88 19.34 19.11 19.58 18.72 19.37 19.36 20.19 19.40 20.06 19.63 18.73 17.91
25.55 22.37 20.47 20.04 19.81 19.26 19.95 20.95 19.53 17.17 17.73 16.09 13.32 13.51 14.73 20.06 21.89 20.84 17.43 18.93 20.59 16.59 17.14 20.75 18.18 16.00 17.29 17.43 20.64 20.01 19.73 18.80 17.55 18.24 18.18 17.84 18.03 17.87 17.91 17.76 18.51 18.32 17.29 17.25
23.43 22.41 21.54 19.57 20.32 20.39 19.92 18.79 17.29 18.02 17.30 15.97 14.31 15.85 17.37 19.95 21.66 19.28 17.19 20.49 20.43 17.34 19.41 18.60 14.30 14.32 15.48 20.31 19.69 18.80 18.60 17.38 16.56 16.64 16.97 17.04 17.10 16.81 16.85 16.44 16.18 17.26 15.55 15.00
24.95 23.40 22.39 22.79 20.51 20.48 19.31 19.58 21.54 19.06 16.43 18.23 16.95 14.25 18.71 19.72 20.62 21.61 21.22 20.27 17.83 16.09 19.39 18.02 15.85 14.77 17.91 19.25 18.66 17.48 17.44 16.10 15.16 16.32 16.39 16.05 15.97 16.07 15.92 15.54 15.10 15.45 14.80 13.37
25.11 24.50 22.74 21.17 21.88 22.05 22.06 21.95 20.64 20.63 19.97 21.70 21.79 22.01 21.62 21.93 20.35 20.17 21.29 21.08 19.35 19.13 19.66 18.64 17.88 14.39 17.92 17.86 17.43 16.69 16.77 16.83 15.03 15.60 15.40 15.15 15.05 14.46 14.38 14.33 14.50 13.84 13.36 12.48
24.57 24.03 24.08 24.18 25.67 24.96 24.61 23.91 23.82 23.10 22.79 22.15 23.30 22.64 22.70 22.50 22.03 21.10 21.04 20.05 19.72 18.80 19.31 19.56 18.70 17.21 17.10 16.93 17.05 16.39 16.16 15.91 15.03 15.03 15.02 14.83 14.68 13.98 13.49 13.58 13.32 13.37 11.92 10.84
26.97 25.72 23.69 23.64 24.52 24.37 24.05 22.93 23.42 22.96 21.67 22.25 21.60 22.27 21.74 21.84 21.37 20.48 19.67 19.97 19.75 19.58 19.39 19.05 19.23 16.88 16.26 16.73 16.29 16.22 15.99 15.71 13.94 14.62 14.98 14.71 14.09 14.09 13.11 13.35 13.18 12.25 12.14 11.03
MSLP
1013.16 1012.71 1012.74 1012.45 1012.71 1012.97 1013.36 1013.93 1014.18 1014.53 1014.34 1015.02 1015.88 1016.60 1017.03 1017.50 1018.13 1018.55 1018.80 1018.93 1019.13 1019.39 1019.59 1019.85 1019.83 1019.71 1019.53 1019.57 1019.08 1018.73 1018.33 1018.06 1017.45 1016.16 1015.42 1014.17 1013.38 1012.35 1011.57 1011.10 1010.05 1010.11 1007.82 1007.44
1014.03 1013.33 1012.93 1012.80 1012.71 1012.69 1013.02 1013.47 1013.70 1013.88 1014.16 1015.42 1016.16 1016.66 1017.39 1018.27 1018.87 1019.18 1019.24 1019.23 1019.40 1019.59 1019.76 1019.86 1019.82 1019.66 1019.53 1019.27 1018.88 1018.60 1018.28 1017.86 1017.62 1016.67 1015.36 1014.40 1013.51 1012.38 1011.51 1010.89 1010.72 1009.50 1008.96 1009.67
1014.31 1013.72 1013.45 1012.96 1012.70 1012.68 1012.73 1013.15 1013.93 1014.43 1014.69 1015.46 1016.41 1017.10 1017.97 1018.72 1019.31 1019.47 1019.61 1019.66 1019.79 1019.86 1019.96 1019.98 1019.88 1019.78 1019.58 1019.21 1018.74 1018.60 1018.53 1018.08 1017.27 1016.52 1015.92 1015.12 1014.28 1013.63 1012.78 1011.92 1010.94 1010.06 1009.84 1010.11
1014.53 1014.01 1013.48 1012.56 1012.40 1012.50 1012.62 1013.36 1014.12 1014.79 1015.31 1016.30 1017.13 1017.57 1018.14 1019.15 1019.55 1019.76 1019.96 1020.03 1020.06 1020.17 1020.24 1020.12 1019.94 1019.86 1019.80 1019.30 1018.89 1018.72 1018.55 1018.21 1017.67 1016.93 1016.06 1015.13 1014.56 1014.14 1013.70 1013.25 1012.32 1011.79 1011.75 1011.25
1015.08 1014.30 1013.38 1013.06 1013.11 1013.33 1013.56 1014.20 1014.55 1015.18 1016.23 1016.99 1017.45 1017.83 1018.56 1019.45 1019.93 1020.24 1020.24 1020.29 1020.36 1020.47 1020.44 1020.21 1020.04 1019.96 1019.82 1019.40 1019.16 1019.04 1018.79 1018.37 1017.71 1017.12 1016.58 1016.01 1015.59 1014.94 1014.07 1013.32 1013.03 1013.06 1012.87 1012.56
1015.26 1014.66 1013.57 1013.18 1013.72 1014.23 1014.82 1015.43 1015.25 1016.52 1017.40 1018.10 1018.44 1018.62 1019.70 1020.04 1020.30 1020.55 1020.54 1020.59 1020.52 1020.58 1020.59 1020.35 1020.32 1020.10 1019.96 1019.69 1019.63 1019.55 1019.28 1018.68 1018.13 1017.60 1017.13 1016.44 1016.13 1015.40 1014.80 1014.16 1014.23 1013.67 1012.98 1012.35
1015.41 1014.87 1013.91 1013.84 1014.44 1015.06 1015.85 1017.05 1017.24 1017.97 1018.39 1019.14 1019.83 1020.21 1020.13 1020.20 1020.54 1020.42 1020.45 1020.55 1020.63 1020.69 1020.72 1020.68 1020.58 1020.50 1020.41 1020.15 1020.31 1020.26 1019.96 1019.44 1018.84 1018.22 1017.58 1016.99 1016.69 1015.98 1015.45 1015.10 1014.62 1014.00 1013.69 1013.18
1015.72 1015.11 1014.22 1013.98 1015.06 1015.82 1016.85 1017.58 1018.31 1018.97 1019.45 1020.00 1020.37 1020.32 1020.32 1020.56 1020.58 1020.56 1020.65 1020.66 1020.91 1021.10 1021.13 1021.01 1021.04 1021.00 1020.88 1020.81 1021.00 1020.90 1020.47 1019.87 1019.18 1018.67 1018.18 1017.53 1016.94 1016.25 1015.75 1015.49 1015.05 1014.62 1014.42 1013.95
1015.15 1014.70 1014.56 1014.71 1015.81 1016.62 1017.29 1018.11 1018.97 1019.51 1020.10 1020.21 1020.16 1020.33 1020.85 1021.04 1021.05 1021.07 1021.19 1021.48 1021.76 1021.88 1021.73 1021.71 1021.68 1021.62 1021.34 1021.39 1021.39 1021.17 1020.78 1020.33 1019.68 1019.08 1018.50 1017.86 1017.25 1016.84 1016.36 1015.99 1015.55 1015.25 1014.80 1014.32
1015.42 1015.20 1015.10 1016.09 1016.67 1017.37 1018.21 1018.80 1019.35 1019.69 1019.95 1020.35 1020.73 1021.19 1021.37 1021.66 1021.79 1022.03 1022.39 1022.64 1022.83 1022.82 1022.72 1022.62 1022.57 1022.38 1022.17 1022.12 1022.02 1021.67 1021.14 1020.55 1019.89 1019.33 1018.67 1018.12 1017.58 1017.08 1016.64 1016.11 1015.83 1015.54 1015.17 1014.74
1015.17 1015.41 1015.57 1016.20 1017.06 1018.17 1019.03 1019.51 1019.79 1020.00 1020.59 1021.16 1021.54 1021.77 1022.15 1022.51 1022.82 1023.35 1023.90 1023.97 1024.12 1024.12 1024.00 1023.68 1023.43 1023.18 1022.97 1022.90 1022.58 1022.07 1021.50 1020.87 1020.13 1019.54 1019.07 1018.65 1018.25 1017.90 1017.38 1017.02 1016.67 1016.09 1015.84 1015.58
1014.38 1015.09 1015.81 1016.35 1017.70 1018.76 1019.42 1019.81 1020.18 1020.42 1020.81 1021.42 1022.05 1022.58 1023.03 1023.40 1024.12 1024.98 1025.21 1025.27 1025.29 1025.29 1025.05 1024.64 1024.32 1024.03 1023.78 1023.54 1023.11 1022.54 1021.97 1021.25 1020.70 1020.32 1019.83 1019.08 1018.47 1017.87 1017.52 1017.12 1016.67 1016.34 1016.06 1015.90
1014.11 1015.02 1016.03 1017.18 1018.18 1018.98 1019.53 1019.95 1020.64 1021.06 1021.75 1022.29 1022.96 1023.53 1023.99 1024.66 1025.69 1026.15 1026.28 1026.55 1026.56 1026.29 1025.85 1025.59 1025.14 1024.67 1024.23 1023.80 1023.19 1022.73 1022.30 1021.50 1020.96 1020.54 1019.92 1019.30 1018.86 1018.38 1017.80 1017.36 1016.99 1016.78 1016.49 1016.20
1014.90 1015.85 1016.86 1017.53 1018.23 1018.91 1019.75 1020.76 1021.48 1021.88 1022.56 1023.24 1023.86 1024.49 1025.11 1025.70 1026.45 1026.84 1027.19 1027.39 1027.20 1026.82 1026.36 1025.96 1025.49 1024.94 1024.55 1023.97 1023.23 1022.77 1022.14 1021.30 1020.86 1020.34 1019.80 1019.27 1018.86 1018.47 1018.17 1017.69 1017.29 1016.92 1016.59 1016.35
1015.87 1016.70 1017.05 1018.10 1018.99 1019.74 1020.50 1021.16 1021.74 1022.39 1023.26 1023.99 1024.79 1025.56 1025.98 1026.51 1026.85 1027.37 1027.61 1027.58 1027.41 1026.93 1026.55 1026.12 1025.70 1025.24 1024.70 1023.97 1023.19 1022.67 1021.88 1021.17 1020.72 1020.14 1019.65 1019.31 1019.00 1018.66 1018.32 1018.01 1017.54 1017.33 1016.90 1016.49
1016.73 1017.34 1018.14 1018.80 1019.55 1020.41 1021.09 1021.90 1022.52 1023.31 1024.12 1024.92 1025.75 1026.54 1026.89 1027.15 1027.31 1027.85 1027.95 1027.85 1027.57 1027.11 1026.58 1026.36 1025.97 1025.51 1024.86 1024.04 1023.32 1022.66 1021.89 1021.19 1020.80 1020.16 1019.66 1019.35 1019.04 1018.68 1018.37 1018.06 1017.63 1017.24 1016.84 1016.77
1017.31 1018.12 1018.84 1019.74 1020.66 1021.43 1022.13 1023.13 1023.81 1024.54 1025.29 1026.09 1027.07 1027.75 1027.92 1028.10 1027.95 1028.32 1028.27 1028.02 1027.65 1027.18 1026.96 1026.68 1026.20 1025.70 1025.01 1024.24 1023.67 1022.88 1022.11 1021.42 1020.96 1020.32 1019.89 1019.58 1019.22 1018.76 1018.36 1018.08 1017.73 1017.49 1017.32 1017.14
1018.24 1018.95 1019.62 1020.46 1021.45 1022.41 1023.41 1024.27 1024.98 1025.81 1026.73 1027.61 1028.23 1028.51 1028.68 1028.66 1028.71 1028.66 1028.37 1027.93 1027.54 1027.20 1027.14 1026.88 1026.38 1025.84 1025.16 1024.59 1024.02 1023.31 1022.53 1021.92 1021.35 1020.86 1020.37 1019.93 1019.50 1019.06 1018.71 1018.47 1018.18 1017.91 1017.68 1017.38
1019.92 1020.86 1021.64 1022.21 1022.90 1023.67 1024.45 1025.21 1026.17 1027.20 1028.01 1028.43 1028.71 1028.89 1028.92 1028.88 1028.90 1028.72 1028.31 1027.89 1027.45 1027.41 1027.40 1026.90 1026.45 1025.99 1025.57 1024.97 1024.39 1023.65 1023.00 1022.43 1021.81 1021.33 1020.88 1020.41 1019.90 1019.48 1019.16 1018.93 1018.70 1018.48 1018.27 1017.97
1021.38 1022.22 1023.01 1023.74 1024.25 1024.84 1025.82 1026.61 1026.98 1028.03 1028.57 1028.86 1029.00 1029.17 1029.26 1029.02 1028.81 1028.58 1028.23 1027.87 1027.93 1028.12 1027.59 1027.16 1026.79 1026.49 1026.15 1025.44 1024.90 1024.07 1023.56 1023.05 1022.56 1022.05 1021.56 1021.13 1020.68 1020.19 1019.76 1019.49 1019.25 1019.09 1018.90 1018.72
1022.48 1023.45 1024.38 1025.24 1026.04 1026.80 1027.27 1027.65 1027.94 1028.45 1028.96 1029.23 1029.37 1029.52 1029.38 1029.03 1028.74 1028.36 1028.05 1027.90 1028.01 1028.16 1027.82 1027.42 1027.24 1027.11 1026.59 1025.94 1025.11 1024.53 1024.13 1023.72 1023.31 1022.86 1022.36 1022.00 1021.50 1021.06 1020.60 1020.33 1019.94 1019.75 1019.59 1019.50
1023.79 1024.71 1025.59 1026.24 1026.82 1027.44 1027.80 1028.02 1028.44 1028.74 1028.97 1029.29 1029.49 1029.46 1029.22 1028.55 1028.30 1028.27 1028.55 1028.57 1028.25 1028.34 1028.16 1027.72 1027.75 1027.54 1026.92 1026.21 1025.48 1025.06 1024.65 1024.33 1024.05 1023.56 1023.08 1022.70 1022.25 1021.85 1021.45 1021.19 1020.74 1020.50 1020.46 1020.31
1024.74 1025.46 1026.15 1026.70 1027.07 1027.61 1028.08 1028.44 1028.65 1028.86 1028.99 1029.29 1029.54 1029.52 1029.23 1028.78 1028.44 1028.34 1028.46 1028.58 1028.58 1028.63 1028.27 1028.23 1028.24 1027.74 1027.09 1026.33 1025.90 1025.54 1025.16 1024.93 1024.67 1024.27 1023.81 1023.38 1022.99 1022.63 1022.26 1021.99 1021.72 1021.33 1021.31 1021.25
1025.07 1025.79 1026.39 1026.88 1027.34 1027.61 1027.90 1028.23 1028.41 1028.76 1028.91 1029.06 1029.32 1029.37 1029.22 1028.78 1028.68 1028.68 1028.75 1028.75 1028.74 1028.67 1028.38 1028.39 1028.37 1027.92 1027.24 1026.72 1026.34 1026.00 1025.64 1025.43 1025.24 1024.78 1024.36 1023.99 1023.60 1023.29 1022.95 1022.69 1022.44 1022.24 1022.17 1022.11
1025.15 1025.75 1026.43 1026.90 1026.94 1027.07 1027.38 1027.76 1028.07 1028.23 1028.40 1028.50 1028.62 1028.81 1028.92 1028.90 1028.98 1028.93 1028.83 1028.77 1028.71 1028.62 1028.38 1028.19 1028.08 1028.06 1027.56 1027.15 1026.80 1026.47 1026.14 1025.86 1025.73 1025.34 1024.92 1024.57 1024.19 1023.87 1023.69 1023.40 1023.16 1023.05 1022.97 1022.82
1025.16 1025.50 1025.94 1026.38 1026.24 1026.43 1026.76 1027.05 1027.26 1027.61 1027.90 1028.11 1028.38 1028.58 1028.77 1028.86 1028.88 1028.87 1028.84 1028.78 1028.69 1028.59 1028.40 1028.25 1028.17 1028.12 1027.83 1027.48 1027.15 1026.87 1026.58 1026.36 1026.13 1025.79 1025.44 1025.12 1024.82 1024.57 1024.32 1024.12 1023.86 1023.65 1023.58 1023.54
1024.93 1025.36 1025.84 1026.07 1026.28 1026.56 1026.85 1027.09 1027.22 1027.59 1028.02 1028.31 1028.45 1028.58 1028.74 1028.81 1028.84 1028.87 1028.89 1028.84 1028.71 1028.59 1028.47 1028.31 1028.10 1028.14 1028.08 1027.74 1027.46 1027.21 1026.95 1026.72 1026.59 1026.30 1025.91 1025.60 1025.36 1025.10 1024.90 1024.64 1024.40 1024.18 1024.03 1023.91
Wind_Speed
14 14 7 9 12 14 17 14 12 12 15 10 9 7 8 13 14 14 14 14 14 13 12 12 12 12 11 11 11 12 10 13 14 16 14 14 13 14 13 13 12 15 15 16
11 12 11 13 13 12 14 15 17 17 10 7 8 10 11 11 10 11 13 14 14 14 15 14 14 13 12 12 12 11 13 12 13 16 15 15 15 15 15 14 12 14 16 11
8 14 13 14 13 15 16 14 2 8 9 11 9 9 8 7 8 11 13 13 14 14 14 12 12 12 13 13 12 11 12 13 15 13 14 13 13 13 13 14 15 16 15 14
7 1 12 9 1 10 5 2 4 9 6 4 7 7 4 4 8 11 12 12 12 12 12 12 11 10 12 12 11 12 13 14 14 14 15 14 13 14 12 10 10 9 9 11
5 8 7 6 5 2 2 6 6 5 2 4 7 9 4 3 8 10 11 11 10 11 12 11 11 11 11 12 11 13 14 15 15 15 14 13 12 13 12 11 10 10 9 10
6 10 7 8 8 6 6 5 5 4 1 4 7 7 4 8 9 9 10 10 11 12 12 11 11 11 12 13 12 13 15 16 15 15 15 14 14 14 12 10 10 10 11 11
7 6 1 9 9 3 3 2 5 3 2 4 4 5 10 8 9 9 10 11 11 11 10 11 10 11 12 11 13 13 14 14 14 14 15 14 13 12 12 11 10 10 10 9
6 5 10 12 8 4 6 4 3 1 1 2 5 8 7 9 10 10 10 11 12 11 11 11 11 11 12 12 12 12 13 14 13 12 11 11 13 11 11 10 10 11 11 9
1 1 4 8 10 8 4 7 4 3 2 6 6 6 8 9 10 11 12 12 12 12 12 11 12 12 13 12 13 13 13 13 12 12 11 11 11 10 9 9 9 9 8 9
2 6 8 6 8 5 5 5 5 2 2 4 6 8 8 9 10 10 12 12 13 13 13 13 13 13 13 13 13 13 12 13 12 10 12 10 8 8 8 7 8 8 8 9
3 4 7 5 8 6 6 5 3 2 4 5 5 7 8 8 10 11 11 11 12 12 12 14 14 14 14 13 13 13 12 12 11 9 10 9 8 8 8 7 8 8 7 7
2 8 6 5 10 7 7 5 3 1 2 3 5 7 8 8 9 10 10 12 12 13 13 14 15 14 13 12 12 11 12 9 7 7 8 7 8 8 11 12 13 13 13 11
3 7 6 9 9 9 7 6 5 3 4 5 7 7 9 8 8 9 9 11 12 12 12 13 13 13 11 12 11 11 11 10 7 7 8 7 7 7 8 8 12 13 13 14
12 10 9 9 8 8 8 8 4 6 6 5 7 8 9 8 5 4 5 5 8 10 8 9 10 10 12 12 11 11 12 11 7 7 7 6 7 7 7 7 8 7 10 14
9 5 5 11 9 7 7 5 4 5 5 6 8 7 7 6 4 6 3 4 8 7 5 7 10 11 12 12 11 12 11 8 8 7 7 7 6 7 6 7 7 7 7 8
7 8 9 8 8 6 5 4 3 5 6 6 7 8 9 8 7 7 5 5 7 8 10 7 10 11 12 13 11 11 11 12 9 8 7 7 6 7 6 7 7 7 8 8
8 7 7 7 6 4 6 6 5 6 5 7 8 7 8 8 7 6 5 5 6 7 8 9 10 11 12 11 11 10 9 8 12 8 7 7 7 7 6 7 7 7 7 8
6 6 5 8 8 7 7 6 6 6 8 7 5 3 3 4 5 6 7 8 6 4 8 10 9 11 11 11 11 10 8 8 8 8 8 7 7 7 6 7 8 8 7 8
11 11 11 10 7 7 5 6 8 8 5 3 3 3 3 2 3 5 7 9 6 8 10 10 13 11 13 13 13 9 8 9 9 8 8 9 7 7 6 6 7 7 8 7
12 12 11 10 8 7 8 7 4 6 4 4 3 4 4 4 3 4 7 6 7 5 10 11 11 11 13 13 16 8 9 9 9 9 8 8 8 9 7 7 7 7 7 7
11 10 10 9 9 7 5 3 3 5 4 3 4 3 3 6 7 4 5 6 8 9 10 10 9 9 9 11 10 8 8 8 9 8 8 8 8 8 8 8 7 7 7 7
9 9 8 7 7 6 3 4 5 2 3 3 2 3 5 6 4 3 3 4 6 8 8 5 7 10 10 16 7 8 8 8 8 8 8 8 7 8 7 8 8 7 7 7
8 8 7 5 5 7 5 4 3 2 1 3 3 3 5 6 6 5 5 8 6 8 8 6 6 10 15 7 7 8 8 8 8 8 8 7 7 7 8 7 7 7 7 8
9 8 7 6 5 6 7 5 5 4 2 3 4 3 4 4 4 4 5 5 6 6 7 4 6 10 12 7 7 7 8 6 8 8 7 9 7 7 7 7 7 7 6 7
8 8 7 6 6 5 4 5 3 3 3 4 3 4 1 3 3 4 4 4 6 6 6 6 6 8 7 7 7 7 7 6 6 7 7 7 7 7 7 7 7 7 7 7
8 6 6 2 1 4 4 3 3 3 2 2 3 3 2 3 2 3 4 4 5 6 5 5 5 5 6 7 7 7 7 7 7 7 7 7 7 7 7 7 7 6 5 6
6 6 5 5 4 3 2 3 1 4 2 3 3 3 3 3 3 4 5 5 5 4 5 5 4 5 5 6 6 6 6 6 6 7 7 6 6 6 5 6 5 5 5 5
Wind_Direction
273 284 268 279 217 234 231 235 253 273 276 36 29 360 7 358 2 349 343 341 350 348 350 350 351 348 357 352 344 344 352 347 339 336 342 344 343 345 358 350 0 325 14 9
285 264 262 254 258 252 247 256 269 272 292 64 7 360 1 1 353 340 337 346 349 347 348 350 349 348 353 346 345 354 350 354 343 340 344 349 344 356 354 351 347 3 13 349
259 246 243 250 246 254 256 247 337 285 304 0 349 350 1 345 344 341 344 346 344 347 349 347 345 357 350 339 344 359 356 350 345 348 342 349 349 354 349 352 354 357 359 1
261 239 237 245 123 344 223 288 243 261 253 346 319 319 359 30 335 342 341 340 344 345 345 340 344 360 348 339 351 360 360 348 342 350 345 347 355 350 354 354 354 4 360 354
231 237 255 179 194 194 223 258 261 248 324 314 319 322 103 1 354 342 338 339 344 348 340 336 350 352 350 343 1 1 355 347 344 351 349 348 357 346 355 354 7 6 6 345
225 244 266 58 97 98 103 250 169 130 336 311 320 298 95 354 353 336 335 340 343 339 344 346 348 354 348 345 9 2 351 347 347 348 347 351 356 351 355 8 0 352 353 354
234 254 243 149 135 165 212 102 105 37 4 28 314 329 317 340 332 329 343 344 345 354 345 348 353 359 348 351 7 358 348 346 345 345 342 356 349 349 353 357 352 359 1 1
231 259 251 144 132 214 108 109 114 123 5 306 276 286 326 335 333 337 343 347 358 350 346 350 358 359 345 5 0 353 346 343 339 345 347 347 343 342 348 352 357 358 353 357
317 139 104 108 90 82 64 136 126 157 244 268 302 338 343 333 338 344 355 359 357 351 345 356 0 357 350 6 357 348 344 341 337 345 343 344 343 343 344 352 356 348 347 350
188 174 140 114 96 111 90 112 142 168 272 350 350 343 341 348 342 354 1 356 355 351 354 352 357 354 359 1 355 346 343 338 337 342 343 346 345 346 341 352 352 347 342 348
210 233 108 148 135 133 119 112 172 115 34 18 350 347 352 344 356 8 357 356 357 357 351 348 349 351 359 359 352 345 339 335 337 342 342 342 348 343 339 346 348 343 349 339
234 174 151 154 123 148 148 149 190 25 9 47 7 359 356 357 23 8 352 358 356 351 348 346 351 348 352 353 344 339 333 325 328 337 329 326 334 332 337 345 346 355 358 357
103 116 116 127 141 160 161 148 90 79 60 18 26 8 16 20 30 2 4 3 352 342 339 351 344 344 345 343 337 345 326 317 324 338 327 332 339 339 339 345 349 354 3 10
98 113 125 160 145 124 118 106 121 85 71 50 38 22 18 18 20 39 33 3 339 322 346 331 326 339 347 336 336 341 325 324 339 332 327 339 345 344 337 342 342 351 1 15
106 68 148 107 112 116 119 137 123 86 49 47 59 22 19 22 356 52 22 8 324 321 331 332 343 348 337 331 340 335 328 337 337 332 333 340 345 342 346 347 349 349 351 15
128 112 122 130 123 117 112 88 78 72 47 39 48 29 12 12 11 37 11 348 332 333 323 4 347 340 331 329 342 333 329 339 340 335 342 343 348 343 353 351 353 358 4 12
140 152 125 118 114 112 88 75 69 58 50 48 48 27 20 9 12 16 350 320 324 324 18 359 341 333 325 338 346 332 327 342 337 333 346 345 344 343 351 354 356 1 4 12
96 114 125 134 125 119 103 94 74 55 58 53 58 39 25 13 3 346 333 312 313 347 16 343 336 334 346 351 345 331 336 341 338 339 341 346 339 344 355 360 358 358 3 5
92 91 81 81 72 80 99 92 73 80 74 69 52 25 359 21 355 329 317 317 18 12 347 337 346 357 353 347 350 332 346 344 344 344 345 341 344 350 359 2 4 5 5 8
115 107 102 92 71 89 85 72 92 84 58 56 332 57 2 327 328 304 314 337 49 12 342 346 358 8 344 344 338 341 351 350 348 348 351 351 354 353 0 8 8 9 12 12
119 113 107 101 93 82 87 107 82 100 99 73 36 13 303 299 297 285 335 1 19 9 350 348 17 4 332 340 328 354 353 354 352 351 355 353 352 357 1 3 7 16 17 19
90 98 106 112 110 106 88 88 101 101 79 73 95 302 312 319 353 54 105 21 6 20 339 357 11 343 330 326 356 354 356 3 358 351 356 355 358 354 6 5 4 17 16 20
119 125 125 134 147 123 119 112 127 111 154 102 71 356 327 328 351 18 3 16 9 353 328 29 355 342 331 342 358 356 358 9 3 353 356 357 360 2 3 11 6 13 27 17
135 135 142 120 133 160 165 154 169 151 201 205 173 219 314 358 351 23 8 352 7 336 339 30 4 342 339 357 357 0 351 23 360 348 355 358 5 5 5 9 12 14 24 31
141 136 131 167 178 153 140 149 183 189 201 222 153 156 314 13 358 351 353 353 349 353 341 6 6 346 350 356 355 1 356 19 8 352 355 2 1 13 8 7 14 24 17 24
154 162 164 107 83 145 149 173 155 113 25 58 110 72 39 16 9 350 357 357 354 350 354 357 11 353 355 354 357 2 2 9 6 357 1 5 3 10 9 8 7 14 33 25
150 134 143 155 160 151 74 59 31 121 117 52 14 72 40 22 15 4 4 4 354 358 354 353 358 7 358 352 357 0 0 2 11 0 4 7 5 6 7 0 5 18 14 26